Weather History for Du Bois, PA

Change the Weather History Date:

Wednesday, January 18, 2012

  Actual Average Record
Temperature  
Mean Temperature 23 °F 23 °F  
Max Temperature 31 °F 31 °F 60 °F (1973)
Min Temperature 15 °F 16 °F -17 °F (1994)
Degree Days  
Heating Degree Days 42 42  
Month to date heating degree days 671 746  
Since 1 July heating degree days 2562 3408  
Cooling Degree Days 0 0  
Month to date cooling degree days 0 0  
Year to date cooling degree days 0 0  
Moisture  
Dew Point 15 °F    
Average Humidity 71    
Maximum Humidity 85    
Minimum Humidity 56    
Precipitation  
Precipitation T in 0.10 in 0.78 in (1974)
Month to date precipitation 1.44 1.87  
Sea Level Pressure  
Sea Level Pressure 29.99 in    
Wind  
Wind Speed 10 mph (WNW)    
Max Wind Speed 28 mph    
Max Gust Speed 36 mph    
Visibility 8 miles    
Events Snow    
T = Trace of Precipitation, MM = Missing Value Source: NWS Daily Summary

Daily Weather History Graph

Daily Weather History Graph

Search for Another Location

Airport:

Trip Planner

Search our weather history database for the weather conditions in past years. The results will help you decide how hot, cold, wet, or windy it might be!

Date:

Astronomy

Jan. 18, 2012 Rise Set
Actual Time 7:37 AM EST 5:14 PM EST
Civil Twilight 7:07 AM EST 5:44 PM EST
Nautical Twilight 6:33 AM EST 6:18 PM EST
Astronomical Twilight 6:00 AM EST 6:51 PM EST
Moon 3:05 AM EST (1/18) 12:51 PM EST (1/18)
Length of Visible Light 10h 37m
Length of Day
9h 36m
Waning Crescent, 25% of the Moon is Illuminated
Jan 18
Waning Crescent
Jan 23
New
Jan 30
First Quarter
Feb 7
Full
Feb 14
Last Quarter

Hourly Weather History & Observations

Time (EST) Temp. Windchill Dew Point Humidity Pressure Visibility Wind Dir Wind Speed Gust Speed Precip Events Conditions
12:19 AM 30.2 °F 17.1 °F 24.8 °F 80% 29.74 in 10.0 mi WNW 21.9 mph 33.4 mph N/A   Overcast
12:43 AM 30.2 °F 18.5 °F 23.0 °F 75% 29.76 in 10.0 mi WNW 17.3 mph 33.4 mph N/A   Overcast
12:56 AM 28.9 °F 17.3 °F 23.0 °F 78% 29.81 in 10.0 mi West 16.1 mph 28.8 mph N/A   Mostly Cloudy
1:05 AM 28.4 °F 16.6 °F 23.0 °F 80% 29.78 in 10.0 mi WNW 16.1 mph 25.3 mph N/A   Overcast
1:56 AM 28.0 °F 17.5 °F 23.0 °F 81% 29.83 in 10.0 mi West 12.7 mph - N/A   Overcast
2:56 AM 28.0 °F 17.0 °F 24.1 °F 85% 29.85 in 8.0 mi West 13.8 mph 26.5 mph N/A   Overcast
3:09 AM 28.4 °F 16.2 °F 24.8 °F 86% 29.82 in 5.0 mi West 17.3 mph - 0.00 in Snow Light Snow
3:30 AM 28.4 °F 19.1 °F 24.8 °F 86% 29.83 in 2.5 mi WNW 10.4 mph - 0.00 in Snow Light Snow
3:53 AM 28.4 °F 18.0 °F 24.8 °F 86% 29.84 in 4.0 mi WNW 12.7 mph 26.5 mph 0.00 in Snow Light Snow
3:56 AM 27.0 °F 14.3 °F 24.1 °F 89% 29.88 in 5.0 mi West 17.3 mph 25.3 mph 0.00 in Snow Light Snow
4:03 AM 26.6 °F 16.8 °F 23.0 °F 86% 29.84 in 6.0 mi WNW 10.4 mph 23.0 mph 0.00 in Snow Light Snow
4:20 AM 26.6 °F 13.4 °F 21.2 °F 80% 29.85 in 4.0 mi WNW 18.4 mph 26.5 mph 0.00 in Snow Light Snow
4:35 AM 26.6 °F 14.7 °F 21.2 °F 80% 29.86 in 4.0 mi WNW 15.0 mph 25.3 mph 0.00 in Snow Light Snow
4:56 AM 26.1 °F 14.5 °F 19.9 °F 78% 29.91 in 8.0 mi WNW 13.8 mph 29.9 mph 0.00 in   Overcast
5:56 AM 24.1 °F 12.0 °F 18.0 °F 77% 29.94 in 8.0 mi West 13.8 mph 25.3 mph 0.00 in Snow Light Snow
6:56 AM 23.0 °F 9.6 °F 16.0 °F 74% 29.97 in 7.0 mi West 16.1 mph 28.8 mph 0.00 in Snow Light Snow
7:56 AM 21.0 °F 8.1 °F 12.9 °F 71% 30.02 in 10.0 mi WNW 13.8 mph 27.6 mph 0.00 in   Overcast
8:04 AM 21.2 °F 6.4 °F 14.0 °F 74% 29.98 in 6.0 mi WNW 18.4 mph 26.5 mph 0.00 in Snow Light Snow
8:56 AM 19.9 °F 5.7 °F 12.0 °F 71% 30.08 in 7.0 mi WNW 16.1 mph 21.9 mph 0.00 in Snow Light Snow
9:27 AM 19.4 °F 4.5 °F 10.4 °F 68% 30.05 in 9.0 mi WNW 17.3 mph 25.3 mph 0.00 in   Overcast
9:56 AM 19.9 °F 5.7 °F 10.9 °F 68% 30.12 in 10.0 mi NW 16.1 mph 24.2 mph 0.00 in   Overcast
10:56 AM 19.9 °F 6.2 °F 9.0 °F 62% 30.14 in 10.0 mi NW 15.0 mph 26.5 mph 0.00 in   Overcast
11:56 AM 21.0 °F 6.6 °F 10.0 °F 63% 30.14 in 10.0 mi NNW 17.3 mph 24.2 mph N/A   Overcast
12:56 PM 21.0 °F 9.3 °F 10.0 °F 63% 30.14 in 10.0 mi NW 11.5 mph 17.3 mph N/A   Overcast
1:56 PM 21.0 °F 12.4 °F 10.0 °F 63% 30.14 in 10.0 mi NW 6.9 mph - N/A   Overcast
2:56 PM 21.9 °F 11.7 °F 9.0 °F 58% 30.14 in 10.0 mi WNW 9.2 mph 16.1 mph N/A   Overcast
3:56 PM 21.0 °F 12.4 °F 8.1 °F 57% 30.13 in 10.0 mi NW 6.9 mph - N/A   Overcast
4:56 PM 21.0 °F 12.4 °F 8.1 °F 57% 30.14 in 10.0 mi NW 6.9 mph - N/A   Overcast
5:56 PM 19.9 °F 12.1 °F 8.1 °F 60% 30.17 in 10.0 mi WNW 5.8 mph - N/A   Overcast
6:56 PM 19.0 °F 12.3 °F 7.0 °F 59% 30.17 in 10.0 mi WNW 4.6 mph - N/A   Overcast
7:56 PM 19.0 °F 10.0 °F 8.1 °F 62% 30.18 in 10.0 mi WSW 6.9 mph - N/A   Overcast
8:56 PM 18.0 °F - 7.0 °F 62% 30.15 in 10.0 mi Calm Calm - N/A   Overcast
9:56 PM 18.0 °F - 7.0 °F 62% 30.13 in 10.0 mi Calm Calm - N/A   Clear
10:56 PM 16.0 °F - 8.1 °F 71% 30.14 in 10.0 mi Calm Calm - N/A   Clear
11:56 PM 16.0 °F - 8.1 °F 71% 30.13 in 10.0 mi Calm Calm - N/A   Clear